Regional Weather Roundup
Issued by NWS

Home | Current Version | Previous Version | Text Only | Print | Product List | Glossary Off
Versions: 1 2 3 4 5 6 7 8 9 10 11 12 13 14 15 16 17 18 19 20 21 22 23 24 25 26 27 28 29 30 31 32 33 34 35 36 37 38 39 40 41 42 43 44 45 46 47 48 49 50

935
ASUS45 KPSR 240210
RWRAZ

ARIZONA HOURLY REGIONAL WEATHER ROUNDUP
NATIONAL WEATHER SERVICE PHOENIX AZ
700 PM MST THU FEB 23 2017

NOTE: FAIR INDICATES FEW OR NO CLOUDS BELOW 12,000 FEET WITH NO
SIGNIFICANT WEATHER AND/OR OBSTRUCTIONS TO VISIBILITY.

AZZ001>003-036-240300-
NORTHWEST ARIZONA

CITY           SKY/WX    TMP DP  RH WIND       PRES   REMARKS
BULLHEAD CITY  CLEAR     59  10  14 NW10G17   29.93R
KINGMAN        CLEAR     44 -13   8 W10       29.91S
$$

AZZ004>008-015-016-018-240300-
NORTH CENTRAL ARIZONA

CITY           SKY/WX    TMP DP  RH WIND       PRES   REMARKS
GRAND CANYON   CLEAR     28   9  44 VRB5      29.85R WCI  23
WILLIAMS       CLEAR     28   5  37 W10       29.86R WCI  19
PRESCOTT       PTCLDY    38  17  42 SW13      29.88R WCI  30
FLAGSTAFF      MOCLDY    31  14  49 W8        29.83R WCI  23
PAYSON         MOCLDY    39  23  52 SW7       29.91S WCI  34
PAGE           PTCLDY    41  -5  14 W10G18    29.82R
$$

AZZ009>014-017-240300-
NORTHEAST ARIZONA

CITY           SKY/WX    TMP DP  RH WIND       PRES   REMARKS
WINSLOW        CLOUDY    44  23  43 W14       29.83R
SAINT JOHNS    PTCLDY    40  10  29 W18       29.81R WCI  31
WINDOW ROCK    MOCLDY    33  11  39 W10       29.79R WCI  25
SHOW LOW       CLEAR     32  10  40 SW16      29.87R WCI  21
$$

AZZ023-240300-
GREATER PHOENIX AREA

CITY           SKY/WX    TMP DP  RH WIND       PRES   REMARKS
PHOENIX        PTCLDY    59  16  18 W14       29.90R
BUCKEYE        CLEAR     54  27  35 W7        29.93R
GLENDALE       PTCLDY    57  23  26 SW12      29.93R
LUKE AFB       CLEAR     56  24  28 SW8       29.91R
DEER VALLEY    CLEAR     55  23  28 SW12      29.90R
SCOTTSDALE     CLEAR     56  23  27 SW7       29.92R
MESA-FALCON    PTCLDY   N/A N/A N/A SW7       29.89
MESA-GATEWAY   CLEAR     55  23  28 SW7       29.92S
CHANDLER       CLEAR     57  23  26 SW7       29.92R
$$

AZZ027-028-240300-
SOUTHWEST MARICOPA COUNTY AND PINAL COUNTY

CITY           SKY/WX    TMP DP  RH WIND       PRES   REMARKS
CASA GRANDE    NOT AVBL
GILA BEND      CLEAR     59  12  15 SW6       29.91S
$$

AZZ503-504-507>509-240300-
SOUTHEAST ARIZONA

CITY           SKY/WX    TMP DP  RH WIND       PRES   REMARKS
TUCSON         CLEAR     58  13  17 NW7       29.93R
DAVIS-MONTHAN  CLEAR     56  13  18 NW9       29.92R
RYAN FIELD     CLEAR     55  16  21 W6        29.92S
NOGALES        CLEAR     52  12  20 W9        29.93S
SIERRA VISTA   CLEAR     50  10  19 W14       29.94R
DOUGLAS        CLEAR     57  12  17 W18       29.90R
SAFFORD        CLEAR     52  11  19 NW22G31   29.83R
$$

AZZ020-021-025-026-031-240300-
SOUTHWEST ARIZONA

CITY           SKY/WX    TMP DP  RH WIND       PRES   REMARKS
YUMA           CLEAR     61  29  29 NW6       29.93S
$$

CAZ031-033-041-043-047-048-061-240300-
SOUTHERN CALIFORNIA

CITY           SKY/WX    TMP DP  RH WIND       PRES   REMARKS
DOWNTOWN L.A.  CLEAR     57  34  41 W3        30.04R
L.A. AIRPORT   PTCLDY    55  32  41 W15       30.05S
SAN DIEGO      PTCLDY    56  35  45 W5        30.10R
BURBANK        CLEAR     53  16  23 N14       30.04R
ONTARIO        PTCLDY    51  30  44 SW9       30.02R
RIVERSIDE      CLEAR     51  31  46 SW12      30.03R
PALM SPRINGS   CLEAR     62  28  27 NW14G21   29.95R
EL CENTRO NAS  PTCLDY    62  29  28 NW8G23    29.96R
IMPERIAL       CLEAR     62  32  32 SW6       29.94R
BLYTHE         CLEAR     58  22  24 N7        29.95R
NEEDLES        CLEAR     59  15  18 W13       29.92R
$$

NVZ020-UTZ003-240300-
SOUTHERN NEVADA-UTAH

CITY           SKY/WX    TMP DP  RH WIND       PRES   REMARKS
LAS VEGAS      PTCLDY    51   5  15 N16       29.91R
SALT LAKE CITY FLURRIES  30  23  75 SW8       29.88R WCI  22
$$

NMZ009-TXZ055-240300-
NEW MEXICO-WEST TEXAS

CITY           SKY/WX    TMP DP  RH WIND       PRES   REMARKS
ALBUQUERQUE    PTCLDY    46   7  20 NW14      29.74R
EL PASO        CLEAR     65  10  11 W21       29.76R
$$


........................KEY........................
SKY/WX - SKY CONDITION/WEATHER
TMP    - TEMPERATURE IN FAHRENHEIT
DP     - DEW POINT IN FAHRENHEIT
RH     - RELATIVE HUMIDITY IN PERCENT
WIND   - DIRECTION AND SPEED IN MILES PER HOUR (MPH)
VRB    - VARIABLE WIND DIRECTION
PRES   - MEAN SEA LEVEL PRESSURE IN INCHES OF MERCURY
         F - FALLING PRESSURE   R - RISING PRESSURE
         S - STEADY PRESSURE
VSB    - VISIBILITY IN MILES
HX     - HEAT INDEX IN FAHRENHEIT
WCI    - WIND CHILL INDEX IN FAHRENHEIT
TC     - TEMPERATURE IN CELSIUS WHICH IS ALSO KNOWN AS
         TEMPERATURE IN CENTIGRADE
AFB    - AIR FORCE BASE
         LUKE AFB IS LUKE AIR FORCE BASE
         DAVIS-MONTHAN IS DAVIS-MONTHAN AIR FORCE BASE
NAS    - NAVAL AIR STATION
         EL CENTRO NAS IS EL CENTRO NAVAL AIR STATION
N/A    - NOT AVAILABLE





USA.gov is the U.S. government's official web portal to all federal, state and local government web resources and services.